[[{"header":{"parameterUnit":"m.s-1","parameterCategory":2,"la1":30.2992,"la2":30.254,"lo1":-89.0895,"lo2":-89.0443,"dy":0.0025,"dx":0.0025,"nx":19,"ny":19,"refTime":"2026-04-10T21:00:00:Z","depth":"0","parameterNumber":2,"parameterNumberName":"U-component_of_CURRENTS"},"data":[0,0,0,-0.2883,-0.2885,-0.2924,-0.2924,-0.2937,-0.2937,0,0,0,0,0,0,0,0,0,0,0,-0.2862,-0.2862,-0.2883,-0.2885,-0.2924,-0.2924,-0.2937,-0.2937,0,0,0,0,0,0,0,0,0,0,0,-0.2862,-0.2862,-0.2863,-0.2885,-0.2924,-0.2924,-0.2937,-0.2913,0,0,0,0,0,0,0,0,0,0,-0.2878,-0.2857,-0.2862,-0.2863,-0.2885,-0.2924,-0.2924,-0.2912,-0.2914,-0.2912,0,-0.2925,0,-0.294,-0.2938,-0.2938,0,0,0,-0.2871,-0.2855,-0.2882,-0.2863,-0.2886,-0.2924,-0.2902,-0.2914,-0.2916,-0.2915,-0.2925,-0.2926,-0.294,-0.2938,-0.2938,-0.2995,-0.2995,0,0,-0.2869,-0.2852,-0.288,-0.2884,-0.2904,-0.2901,-0.2904,-0.2915,-0.2911,-0.2925,-0.2927,-0.2941,-0.2938,-0.2938,-0.2994,-0.2995,0,0,0,-0.2872,-0.285,-0.2876,-0.2883,-0.2898,-0.2903,-0.2906,-0.291,-0.2924,-0.2927,-0.2941,-0.2938,-0.2939,-0.2994,-0.2995,-0.3036,0,0,0,-0.287,-0.2853,-0.2875,-0.2863,-0.2898,-0.2908,-0.29,-0.2923,-0.2925,-0.2941,-0.2938,-0.2939,-0.2993,-0.2994,-0.3034,-0.3038,0,0,0,-0.2859,-0.2852,-0.2862,-0.2862,-0.2888,-0.2908,-0.2921,-0.2923,-0.2934,-0.2938,-0.2939,-0.2993,-0.2994,-0.3032,-0.3035,-0.3035,0,0,0,-0.2831,-0.2848,-0.2862,-0.2891,-0.2888,-0.2946,-0.2921,-0.2945,-0.2952,-0.2939,-0.2993,-0.2995,-0.3031,-0.3033,-0.3033,-0.2919,-0.2917,0,0,-0.2839,-0.2848,-0.287,-0.2885,-0.2942,-0.2939,-0.2994,-0.2983,-0.2968,-0.2983,-0.2985,-0.3035,-0.3035,-0.3034,-0.2986,-0.2981,0,0,0,-0.2865,-0.2873,-0.2896,-0.2932,-0.298,-0.3015,-0.3021,-0.3025,-0.3032,-0.2981,-0.3047,-0.3045,-0.3043,-0.2972,-0.2969,-0.2925,-0.3,-0.3,-0.3,-0.2818,-0.287,-0.2904,-0.2967,-0.3012,-0.3066,-0.3089,-0.3094,-0.308,-0.309,-0.3089,-0.3128,-0.3055,-0.305,-0.3008,-0.3107,-0.3107,-0.3107,-0.3107,-0.2813,-0.2821,-0.2903,-0.2951,-0.3021,-0.3069,-0.3143,-0.3143,-0.3164,-0.3145,-0.3141,-0.3031,-0.3049,-0.3005,-0.311,-0.3109,-0.3109,-0.3109,-0.3109,-0.2749,-0.2759,-0.2808,-0.2886,-0.2965,-0.3055,-0.3109,-0.3168,-0.318,-0.3195,-0.3087,-0.3084,-0.3034,-0.3183,-0.3183,-0.3183,-0.3183,-0.3184,-0.3184,-0.2645,-0.27,-0.2714,-0.2818,-0.2857,-0.2951,-0.3083,-0.3116,-0.3127,-0.3112,-0.311,-0.3037,-0.315,-0.3134,-0.3184,-0.3184,-0.3184,-0.3184,-0.3184,-0.2515,-0.2558,-0.2573,-0.2607,-0.2718,-0.2743,-0.2927,-0.2983,-0.3034,-0.3008,-0.2953,-0.3062,-0.3028,-0.3029,-0.3009,-0.3024,-0.3024,-0.3024,-0.3024,-0.2399,-0.2436,-0.2417,-0.2442,-0.2513,-0.2631,-0.2618,-0.272,-0.2803,-0.2788,-0.2867,-0.2827,-0.2835,-0.2789,-0.2796,-0.2771,-0.2726,-0.2725,-0.2725,-0.228,-0.2316,-0.2242,-0.2316,-0.2398,-0.246,-0.2399,-0.2473,-0.2619,-0.2715,-0.2834,-0.2847,-0.2794,-0.2811,-0.2742,-0.2754,-0.2715,0,0]},{"header":{"parameterUnit":"m.s-1","parameterCategory":2,"la1":30.2992,"la2":30.254,"lo1":-89.0895,"lo2":-89.0443,"dy":0.0025,"dx":0.0025,"nx":19,"ny":19,"refTime":"2026-04-10T21:00:00:Z","depth":"0","parameterNumber":3,"parameterNumberName":"V-component_of_CURRENTS"},"data":[0,0,0,-0.0426,-0.0424,-0.0302,-0.0301,-0.0104,-0.0102,0,0,0,0,0,0,0,0,0,0,0,-0.0472,-0.0472,-0.0426,-0.0424,-0.0302,-0.0301,-0.0104,-0.0102,0,0,0,0,0,0,0,0,0,0,0,-0.0472,-0.0472,-0.0472,-0.0423,-0.0302,-0.0301,-0.0104,-0.0202,0,0,0,0,0,0,0,0,0,0,-0.0324,-0.0388,-0.0472,-0.0472,-0.0423,-0.0302,-0.0301,-0.0207,-0.0196,-0.0153,0,-0.0149,0,-0.0126,-0.009,-0.0089,0,0,0,-0.0405,-0.0398,-0.0359,-0.0472,-0.0422,-0.0303,-0.0352,-0.0201,-0.0188,-0.0138,-0.0146,-0.0139,-0.0122,-0.0088,-0.0087,0.0043,0.0043,0,0,-0.0411,-0.0448,-0.0368,-0.0352,-0.0409,-0.0356,-0.0348,-0.0194,-0.0191,-0.0146,-0.0134,-0.0119,-0.0087,-0.0086,0.0043,0.0043,0,0,0,-0.0443,-0.0453,-0.0418,-0.036,-0.0343,-0.0353,-0.0344,-0.0198,-0.0185,-0.0132,-0.0117,-0.0086,-0.0084,0.0043,0.0043,-0.0068,0,0,0,-0.0447,-0.0473,-0.0422,-0.0442,-0.0347,-0.0277,-0.0352,-0.0196,-0.0178,-0.0118,-0.0086,-0.0082,0.0043,0.0043,-0.0065,-0.0116,0,0,0,-0.0475,-0.0476,-0.0466,-0.0445,-0.0399,-0.0279,-0.0257,-0.0192,-0.0169,-0.0089,-0.0081,0.0043,0.0043,-0.0062,-0.0111,-0.0079,0,0,0,-0.0508,-0.0521,-0.0468,-0.0474,-0.0401,-0.0344,-0.0258,-0.0201,-0.0142,-0.0085,0.0043,0.0043,-0.0061,-0.0108,-0.0077,-0.0002,-0.0005,0,0,-0.0545,-0.0526,-0.0529,-0.0478,-0.0467,-0.0358,-0.032,-0.0207,-0.0121,-0.0002,0.0002,-0.0066,-0.0111,-0.0079,0.0002,-0.0002,0,0,0,-0.0554,-0.0564,-0.0549,-0.0528,-0.0461,-0.0401,-0.0285,-0.0218,-0.0114,-0.0088,-0.0033,-0.0057,-0.0034,0.0017,0.0014,0.0293,0.0043,0.0043,0.0043,-0.0657,-0.0619,-0.0635,-0.0584,-0.0541,-0.0419,-0.0354,-0.0235,-0.0154,-0.0124,-0.0123,-0.0144,-0.0092,-0.0093,0.0193,-0.0092,-0.0093,-0.0093,-0.0093,-0.074,-0.0756,-0.0708,-0.0709,-0.0628,-0.0578,-0.0413,-0.0339,-0.0221,-0.0174,-0.0145,-0.0073,-0.0102,0.0204,-0.01,-0.0099,-0.0098,-0.0097,-0.0097,-0.0817,-0.0823,-0.0815,-0.0819,-0.0789,-0.0678,-0.0617,-0.0475,-0.0323,-0.0303,-0.0171,-0.0168,0.0086,-0.0272,-0.0272,-0.0273,-0.0273,-0.0273,-0.0273,-0.0901,-0.0894,-0.0942,-0.0932,-0.0944,-0.0898,-0.0728,-0.0621,-0.04,-0.0271,-0.0269,0.0129,-0.0196,-0.0207,-0.0274,-0.0274,-0.0274,-0.0274,-0.0274,-0.0989,-0.099,-0.1071,-0.11,-0.1117,-0.1102,-0.093,-0.0645,-0.0485,-0.0356,0.0157,-0.0213,-0.0154,-0.0149,-0.0156,-0.0206,-0.0206,-0.0206,-0.0206,-0.1056,-0.1061,-0.118,-0.1248,-0.1281,-0.1194,-0.104,-0.069,-0.0094,0.0241,0.0342,0.0424,0.0408,0.0506,0.0497,0.0506,0.0625,0.0627,0.0628,-0.1116,-0.1152,-0.1247,-0.1308,-0.1356,-0.1278,-0.1111,-0.0666,0.0251,0.069,0.0717,0.0681,0.0828,0.0781,0.0954,0.0918,0.094,0,0]}],[{"header":{"parameterUnit":"m.s-1","parameterCategory":2,"la1":30.2992,"la2":30.254,"lo1":-89.0895,"lo2":-89.0443,"dy":0.0025,"dx":0.0025,"nx":19,"ny":19,"refTime":"2026-04-10T21:00:00:Z","depth":"2","parameterNumber":2,"parameterNumberName":"U-component_of_CURRENTS"},"data":[0,0,0,-0.2731,-0.2732,-0.2776,-0.2776,-0.2786,-0.2786,0,0,0,0,0,0,0,0,0,0,0,-0.271,-0.271,-0.2731,-0.2732,-0.2776,-0.2776,-0.2786,-0.2786,0,0,0,0,0,0,0,0,0,0,0,-0.271,-0.271,-0.2711,-0.2733,-0.2776,-0.2776,-0.2786,-0.2761,0,0,0,0,0,0,0,0,0,0,-0.2723,-0.2705,-0.271,-0.2711,-0.2733,-0.2776,-0.2776,-0.276,-0.2763,-0.2757,0,-0.2771,0,-0.2787,-0.2786,-0.2787,0,0,0,-0.272,-0.2703,-0.2729,-0.2711,-0.2734,-0.2776,-0.2753,-0.2762,-0.2764,-0.276,-0.2771,-0.2772,-0.2787,-0.2787,-0.2787,-0.2837,-0.2838,0,0,-0.2717,-0.2702,-0.2727,-0.2731,-0.2754,-0.2751,-0.2754,-0.2764,-0.2761,-0.2771,-0.2773,-0.2787,-0.2787,-0.2787,-0.2837,-0.2837,0,0,0,-0.2719,-0.27,-0.2726,-0.273,-0.2746,-0.2753,-0.2756,-0.276,-0.2773,-0.2773,-0.2787,-0.2787,-0.2787,-0.2836,-0.2837,-0.2882,0,0,0,-0.2717,-0.2702,-0.2725,-0.2713,-0.2746,-0.2758,-0.2752,-0.2772,-0.2774,-0.2787,-0.2787,-0.2787,-0.2836,-0.2836,-0.2879,-0.2883,0,0,0,-0.2706,-0.2701,-0.2712,-0.2713,-0.274,-0.2758,-0.2771,-0.2773,-0.2783,-0.2787,-0.2787,-0.2835,-0.2836,-0.2877,-0.288,-0.288,0,0,0,-0.268,-0.2697,-0.2711,-0.274,-0.274,-0.2794,-0.2771,-0.2795,-0.2802,-0.2787,-0.2836,-0.2837,-0.2876,-0.2878,-0.2878,-0.2753,-0.275,0,0,-0.2688,-0.2697,-0.2718,-0.2733,-0.2787,-0.2787,-0.2839,-0.283,-0.2816,-0.2826,-0.2827,-0.288,-0.288,-0.2879,-0.2817,-0.2811,0,0,0,-0.2713,-0.2721,-0.2742,-0.2777,-0.2822,-0.2856,-0.2864,-0.2868,-0.2878,-0.2828,-0.289,-0.2888,-0.2886,-0.2808,-0.2805,-0.2842,-0.2842,-0.2842,-0.2842,-0.2672,-0.2718,-0.275,-0.2808,-0.2851,-0.2904,-0.2927,-0.2934,-0.2921,-0.2934,-0.2933,-0.2973,-0.2892,-0.2887,-0.295,-0.295,-0.295,-0.2951,-0.2951,-0.2666,-0.2673,-0.2749,-0.2794,-0.2861,-0.2908,-0.2978,-0.2982,-0.3005,-0.2988,-0.2984,-0.287,-0.2885,-0.2954,-0.2954,-0.2953,-0.2953,-0.2953,-0.2952,-0.2607,-0.2616,-0.2663,-0.2735,-0.2811,-0.2898,-0.2948,-0.3008,-0.3023,-0.3039,-0.2925,-0.2922,-0.2977,-0.3031,-0.3031,-0.3031,-0.3031,-0.3031,-0.3031,-0.251,-0.2561,-0.2575,-0.2673,-0.271,-0.2799,-0.2927,-0.2958,-0.2967,-0.2951,-0.2949,-0.2999,-0.2996,-0.2981,-0.3032,-0.3031,-0.3031,-0.3031,-0.3031,-0.2387,-0.2429,-0.2441,-0.2473,-0.2574,-0.2582,-0.2769,-0.2817,-0.2869,-0.284,-0.2893,-0.2896,-0.2859,-0.286,-0.2841,-0.2853,-0.2853,-0.2853,-0.2853,-0.2277,-0.2313,-0.2292,-0.2311,-0.2371,-0.2467,-0.2405,-0.2423,-0.2546,-0.2527,-0.2541,-0.2488,-0.2503,-0.2444,-0.2455,-0.2426,-0.233,-0.2328,-0.2327,-0.2163,-0.2197,-0.2124,-0.219,-0.2258,-0.2285,-0.2129,-0.1968,-0.2043,-0.2303,-0.2416,-0.2825,-0.2784,-0.2793,-0.2732,-0.2737,-0.2703,0,0]},{"header":{"parameterUnit":"m.s-1","parameterCategory":2,"la1":30.2992,"la2":30.254,"lo1":-89.0895,"lo2":-89.0443,"dy":0.0025,"dx":0.0025,"nx":19,"ny":19,"refTime":"2026-04-10T21:00:00:Z","depth":"2","parameterNumber":3,"parameterNumberName":"V-component_of_CURRENTS"},"data":[0,0,0,-0.044,-0.0438,-0.0321,-0.032,-0.0132,-0.013,0,0,0,0,0,0,0,0,0,0,0,-0.0485,-0.0485,-0.044,-0.0438,-0.0321,-0.032,-0.0132,-0.013,0,0,0,0,0,0,0,0,0,0,0,-0.0485,-0.0485,-0.0484,-0.0438,-0.0321,-0.032,-0.0132,-0.0226,0,0,0,0,0,0,0,0,0,0,-0.0343,-0.0405,-0.0485,-0.0484,-0.0437,-0.0321,-0.032,-0.0231,-0.022,-0.018,0,-0.0176,0,-0.0154,-0.0118,-0.0118,0,0,0,-0.042,-0.0414,-0.0376,-0.0484,-0.0437,-0.0322,-0.0369,-0.0225,-0.0213,-0.0165,-0.0174,-0.0167,-0.015,-0.0117,-0.0116,0.0006,0.0006,0,0,-0.0426,-0.0462,-0.0385,-0.037,-0.0424,-0.0373,-0.0365,-0.0218,-0.0216,-0.0173,-0.0162,-0.0147,-0.0116,-0.0115,0.0006,0.0006,0,0,0,-0.0457,-0.0467,-0.0433,-0.0377,-0.0362,-0.037,-0.0361,-0.0222,-0.021,-0.016,-0.0145,-0.0115,-0.0113,0.0006,0.0006,-0.01,0,0,0,-0.046,-0.0486,-0.0437,-0.0456,-0.0365,-0.0298,-0.0369,-0.022,-0.0203,-0.0146,-0.0115,-0.0111,0.0006,0.0006,-0.0097,-0.0149,0,0,0,-0.0487,-0.0488,-0.048,-0.0459,-0.0415,-0.03,-0.0279,-0.0216,-0.0194,-0.0118,-0.0111,0.0006,0.0006,-0.0094,-0.0144,-0.0114,0,0,0,-0.052,-0.0532,-0.0481,-0.0487,-0.0416,-0.0363,-0.0279,-0.0225,-0.0169,-0.0114,0.0006,0.0006,-0.0094,-0.0141,-0.0112,-0.0045,-0.0049,0,0,-0.0556,-0.0538,-0.054,-0.0491,-0.0481,-0.0377,-0.0342,-0.0233,-0.015,-0.0036,-0.0033,-0.0098,-0.0144,-0.0114,-0.0042,-0.0046,0,0,0,-0.0565,-0.0575,-0.056,-0.0541,-0.0477,-0.0421,-0.0309,-0.0245,-0.0145,-0.0118,-0.0067,-0.0092,-0.007,-0.0024,-0.0027,0.0006,0.0006,0.0006,0.0006,-0.0666,-0.0629,-0.0646,-0.0597,-0.0556,-0.0441,-0.0379,-0.0265,-0.0186,-0.0157,-0.0155,-0.0177,-0.013,-0.0131,-0.0124,-0.0124,-0.0125,-0.0125,-0.0125,-0.0747,-0.0762,-0.0717,-0.072,-0.0643,-0.0596,-0.044,-0.0368,-0.0254,-0.0207,-0.018,-0.0111,-0.014,-0.0133,-0.0131,-0.013,-0.013,-0.0129,-0.0129,-0.0821,-0.0828,-0.082,-0.0827,-0.08,-0.0695,-0.0639,-0.0501,-0.0354,-0.0334,-0.021,-0.0206,-0.0232,-0.0303,-0.0303,-0.0303,-0.0303,-0.0303,-0.0303,-0.0903,-0.0897,-0.0944,-0.0937,-0.095,-0.0909,-0.0748,-0.0645,-0.0433,-0.0309,-0.0306,-0.0235,-0.0229,-0.0239,-0.0305,-0.0305,-0.0305,-0.0305,-0.0304,-0.099,-0.099,-0.1071,-0.1101,-0.112,-0.1107,-0.0945,-0.0674,-0.0521,-0.0397,-0.0255,-0.0255,-0.0199,-0.0194,-0.0201,-0.0253,-0.0253,-0.0253,-0.0253,-0.1055,-0.106,-0.1178,-0.1246,-0.1281,-0.1197,-0.1055,-0.0748,-0.0421,-0.0253,-0.0254,-0.0225,-0.0225,-0.0169,-0.0164,-0.0169,-0.0214,-0.0214,-0.0214,-0.1115,-0.115,-0.1244,-0.1305,-0.1355,-0.1278,-0.1125,-0.0759,-0.0314,-0.0218,-0.0304,-0.024,-0.0195,-0.0198,-0.0105,-0.0101,-0.0105,0,0]}],[{"header":{"parameterUnit":"m.s-1","parameterCategory":2,"la1":30.2992,"la2":30.254,"lo1":-89.0895,"lo2":-89.0443,"dy":0.0025,"dx":0.0025,"nx":19,"ny":19,"refTime":"2026-04-10T21:00:00:Z","depth":"4","parameterNumber":2,"parameterNumberName":"U-component_of_CURRENTS"},"data":[0,0,0,-0.1888,-0.1891,-0.2046,-0.2047,-0.2127,-0.2128,0,0,0,0,0,0,0,0,0,0,0,-0.1841,-0.1842,-0.1888,-0.1892,-0.2046,-0.2047,-0.2127,-0.2128,0,0,0,0,0,0,0,0,0,0,0,-0.184,-0.1842,-0.1844,-0.1892,-0.2046,-0.2047,-0.2127,-0.2039,0,0,0,0,0,0,0,0,0,0,-0.1903,-0.1878,-0.1842,-0.1844,-0.1893,-0.2046,-0.2047,-0.2036,-0.2044,-0.2025,0,-0.2065,0,-0.2095,-0.2131,-0.2131,0,0,0,-0.1888,-0.1872,-0.1912,-0.1844,-0.1895,-0.2046,-0.1976,-0.2041,-0.2051,-0.2035,-0.2066,-0.207,-0.2096,-0.2131,-0.2131,-0.221,-0.2211,0,0,-0.188,-0.1865,-0.1906,-0.1919,-0.1954,-0.1971,-0.198,-0.2048,-0.2063,-0.2067,-0.2072,-0.2098,-0.2131,-0.2132,-0.221,-0.221,0,0,0,-0.1858,-0.1859,-0.19,-0.1915,-0.1951,-0.1975,-0.1987,-0.2061,-0.2076,-0.2074,-0.2099,-0.2132,-0.2132,-0.2209,-0.221,-0.226,0,0,0,-0.1852,-0.1846,-0.1897,-0.1888,-0.1951,-0.2024,-0.1997,-0.2071,-0.208,-0.2098,-0.2132,-0.2133,-0.2208,-0.2209,-0.2257,-0.2254,0,0,0,-0.183,-0.1843,-0.1867,-0.1887,-0.1955,-0.2024,-0.2044,-0.2074,-0.2094,-0.2131,-0.2133,-0.2208,-0.2209,-0.2255,-0.2251,-0.2251,0,0,0,-0.1799,-0.1834,-0.1867,-0.1919,-0.1954,-0.2044,-0.2044,-0.2116,-0.2153,-0.2132,-0.2208,-0.221,-0.2254,-0.2249,-0.2249,-0.1972,0,0,0,-0.1816,-0.1836,-0.1866,-0.1898,-0.1976,-0.2021,-0.2105,-0.2154,-0.216,-0.2175,-0.2179,-0.2258,-0.2251,-0.2251,-0.2049,0,0,0,0,-0.1852,-0.1874,-0.1904,-0.1965,-0.2034,-0.2106,-0.2166,-0.219,-0.2243,-0.219,-0.227,-0.2263,-0.2261,-0.2096,-0.2216,-0.2216,-0.2215,-0.2215,-0.2215,-0.1829,-0.1878,-0.1929,-0.2002,-0.2069,-0.217,-0.2223,-0.2265,-0.2275,-0.2311,-0.2314,-0.2358,-0.2189,-0.2337,-0.2337,-0.2338,-0.2338,-0.2338,-0.2338,-0.1825,-0.1838,-0.1935,-0.2005,-0.21,-0.2183,-0.228,-0.2314,-0.2367,-0.2367,-0.2363,-0.2173,-0.2343,-0.2342,-0.2342,-0.2341,-0.2341,-0.234,-0.234,-0.1765,-0.1776,-0.1855,-0.196,-0.2075,-0.2194,-0.225,-0.2347,-0.239,-0.2413,-0.2219,-0.2377,-0.2359,-0.2418,-0.2418,-0.2418,-0.2418,-0.2418,-0.2418,-0.1652,-0.1728,-0.1777,-0.1912,-0.1978,-0.2088,-0.2243,-0.2265,-0.235,-0.2226,-0.2423,-0.2384,-0.2381,-0.2363,-0.2418,-0.2418,-0.2418,-0.2418,-0.2418,-0.1526,-0.1593,-0.1635,-0.1701,-0.1837,-0.1893,-0.2091,-0.2095,-0.2092,-0.203,-0.2113,-0.2128,-0.2072,-0.2077,-0.2046,-0.2009,-0.2006,-0.2003,0,-0.1423,-0.1466,-0.1495,-0.1539,-0.158,-0.1754,-0.1697,-0.1777,-0.1854,-0.1791,-0.2075,-0.2168,-0.2177,-0.2114,-0.2113,-0.2075,0,0,0,-0.1325,-0.1359,-0.1324,-0.141,-0.1445,-0.1513,-0.1667,-0.1621,-0.1859,-0.179,-0.1917,-0.194,-0.224,-0.2419,-0.2368,-0.2365,-0.2333,0,0]},{"header":{"parameterUnit":"m.s-1","parameterCategory":2,"la1":30.2992,"la2":30.254,"lo1":-89.0895,"lo2":-89.0443,"dy":0.0025,"dx":0.0025,"nx":19,"ny":19,"refTime":"2026-04-10T21:00:00:Z","depth":"4","parameterNumber":3,"parameterNumberName":"V-component_of_CURRENTS"},"data":[0,0,0,-0.0357,-0.0356,-0.029,-0.0289,-0.0159,-0.0158,0,0,0,0,0,0,0,0,0,0,0,-0.0383,-0.0383,-0.0357,-0.0356,-0.029,-0.0289,-0.0159,-0.0158,0,0,0,0,0,0,0,0,0,0,0,-0.0383,-0.0383,-0.0383,-0.0356,-0.029,-0.0289,-0.016,-0.0217,0,0,0,0,0,0,0,0,0,0,-0.0285,-0.033,-0.0383,-0.0383,-0.0356,-0.029,-0.0289,-0.022,-0.0213,-0.0181,0,-0.0185,0,-0.0173,-0.015,-0.0149,0,0,0,-0.034,-0.0336,-0.0312,-0.0383,-0.0355,-0.029,-0.0315,-0.0217,-0.0209,-0.0172,-0.0183,-0.0178,-0.017,-0.0149,-0.0148,-0.0067,-0.0067,0,0,-0.0344,-0.037,-0.0318,-0.0308,-0.0355,-0.0318,-0.0314,-0.0212,-0.0214,-0.0182,-0.0175,-0.0168,-0.0148,-0.0147,-0.0067,-0.0067,0,0,0,-0.0365,-0.0373,-0.0352,-0.0313,-0.0307,-0.0316,-0.0311,-0.0218,-0.0211,-0.0174,-0.0167,-0.0147,-0.0146,-0.0067,-0.0067,-0.0156,0,0,0,-0.0367,-0.0386,-0.0354,-0.0369,-0.031,-0.027,-0.032,-0.0217,-0.0206,-0.0167,-0.0147,-0.0145,-0.0067,-0.0067,-0.0154,-0.02,0,0,0,-0.0383,-0.0388,-0.0384,-0.037,-0.0348,-0.0272,-0.0258,-0.0215,-0.0202,-0.0149,-0.0144,-0.0067,-0.0067,-0.0152,-0.0195,-0.0177,0,0,0,-0.0404,-0.0418,-0.0385,-0.0397,-0.0349,-0.0322,-0.0258,-0.0228,-0.019,-0.0147,-0.0067,-0.0067,-0.0151,-0.0193,-0.0175,-0.0192,0,0,0,-0.0433,-0.0423,-0.0428,-0.0397,-0.0402,-0.0329,-0.0319,-0.0242,-0.0176,-0.0093,-0.0092,-0.0155,-0.0195,-0.0177,-0.0196,0,0,0,0,-0.0445,-0.0456,-0.045,-0.0446,-0.0408,-0.0381,-0.0304,-0.0258,-0.0186,-0.0156,-0.0131,-0.0153,-0.0139,-0.0141,-0.0067,-0.0067,-0.0067,-0.0067,-0.0067,-0.0519,-0.0498,-0.0521,-0.0497,-0.0478,-0.0409,-0.0371,-0.029,-0.0225,-0.0205,-0.0209,-0.0235,-0.0241,-0.0183,-0.0184,-0.0184,-0.0184,-0.0185,-0.0185,-0.0579,-0.0594,-0.058,-0.0596,-0.0559,-0.054,-0.0434,-0.0381,-0.0301,-0.0257,-0.0238,-0.0216,-0.0193,-0.0192,-0.019,-0.0189,-0.0189,-0.0188,-0.0188,-0.0626,-0.0633,-0.0647,-0.0677,-0.0685,-0.0627,-0.0602,-0.0503,-0.0386,-0.0374,-0.0321,-0.0274,-0.0284,-0.0349,-0.035,-0.035,-0.035,-0.035,-0.035,-0.0666,-0.0681,-0.0735,-0.0762,-0.0794,-0.0788,-0.0694,-0.0623,-0.0494,-0.0418,-0.0389,-0.0289,-0.0284,-0.029,-0.0352,-0.0352,-0.0352,-0.0351,-0.0351,-0.0711,-0.0728,-0.081,-0.0857,-0.0917,-0.0905,-0.0831,-0.0662,-0.0582,-0.0485,-0.0412,-0.0409,-0.0366,-0.0358,-0.0366,-0.0453,-0.0453,-0.0454,0,-0.0745,-0.0757,-0.0873,-0.0953,-0.0999,-0.0964,-0.0867,-0.0758,-0.0585,-0.0582,-0.0579,-0.0505,-0.0498,-0.0458,-0.0451,-0.0466,0,0,0,-0.0778,-0.0812,-0.0895,-0.0975,-0.103,-0.0907,-0.0833,-0.0769,-0.0621,-0.0529,-0.0464,-0.0461,-0.0445,-0.0359,-0.0284,-0.0277,-0.0283,0,0]}]]